#timestamp,LO_Frequency,Hit,StdDev 
1586397615.7,286046997.1,N
1586397635.5,286046996.8,N
1586397655.4,286046996.5,N
1586397675.2,286046999.1,N
1586397695.1,286046999.1,N
1586397696.0,286046999.1,N
1586397715.8,286046998.4,N
1586397735.6,286046998.8,N
1586397755.5,286046999.2,N
1586397775.3,286046999.3,N
1586397795.2,286046998.9,N
1586397815.9,286047002.8,N
1586397835.7,286047004.0,N
1586397855.6,286047002.2,N
1586397875.4,286047000.2,N
1586397895.3,286047002.7,N
1586397915.1,286047000.2,N
1586397916.0,286047000.2,N
1586397935.8,286047000.3,N
1586397955.7,286047000.0,N
1586397975.5,286047002.4,N
1586397995.4,286047000.3,N
1586398015.2,286046999.9,N
1586398035.0,286046999.7,N
1586398035.9,286046999.7,N
1586398055.8,286047002.3,N
1586398075.6,286047000.8,N
1586398095.4,286046999.6,N
1586398115.3,286046999.6,N
1586398135.1,286047001.2,N
1586398155.9,286047000.4,N
1586398175.7,286047004.0,N
1586398195.5,286047005.8,Y
1586398215.4,286047005.4,P
1586398235.2,286047003.0,N
1586398285.1,286047004.4,E
1586398295.9,286047000.2,N
1586398315.7,286046998.7,P
1586398335.6,286046995.0,P
1586398385.4,286046997.6,E
1586398395.4,286046996.6,N
1586398415.2,286047001.1,P
1586398435.0,286046999.8,N
1586398435.9,286046999.8,N
1586398455.8,286047001.2,N
1586398475.6,286046998.1,N
1586398495.5,286047000.4,N
1586398515.3,286046999.8,N
1586398535.1,286047001.5,N
1586398555.9,286047002.2,N
1586398575.7,286047000.1,N
1586398595.6,286047002.2,N
1586398615.4,286047002.8,N
1586398635.2,286047001.6,N
1586398655.1,286047002.4,N
1586398656.0,286047002.4,N
1586398675.8,286047002.5,N
1586398695.6,286046999.9,N
1586398715.5,286047000.3,N
1586398735.3,286047003.8,N
1586398755.2,286047005.5,Y
1586398775.9,286047003.8,P
1586398795.7,286047002.9,N
1586398815.6,286047004.6,P
1586398835.4,286047004.1,N
1586398855.2,286047003.5,N
1586398875.1,286047004.1,Y
1586398876.0,286047004.1,P
1586398895.8,286046996.5,P
1586398915.7,286046995.0,N
1586398935.5,286046997.1,N
1586398955.3,286046995.4,N
1586398975.2,286046995.7,N
1586398995.0,286046996.9,N
1586398995.9,286046996.9,N
1586399015.8,286046997.0,N
1586399035.6,286046998.6,N
1586399055.4,286046999.3,N
1586399075.3,286046999.5,N
1586399095.1,286046999.3,N
1586399115.9,286046999.9,N
1586399135.7,286047002.8,N
1586399155.5,286047003.9,N
1586399175.4,286047003.8,N
1586399195.2,286047002.0,N
1586399215.0,286047002.8,N
1586399215.9,286047002.8,N
1586399235.8,286047002.6,N
1586399255.6,286047003.2,N
1586399305.5,286047004.3,E
1586399315.4,286046998.9,N
1586399335.3,286046993.5,P
1586399355.1,286046995.4,N
1586399356.0,286046995.4,N
1586399375.8,286046995.2,N
1586399395.7,286046998.4,N
1586399415.5,286046999.0,N
1586399435.3,286046999.5,N
1586399455.2,286046996.8,N
1586399475.0,286046995.5,N
1586399475.9,286046995.5,N
1586399495.8,286046995.1,N
1586399515.6,286046996.1,N
1586399535.4,286046998.0,N
1586399555.3,286046998.0,N
1586399575.1,286046995.0,N
1586399595.9,286046995.0,N
1586399615.7,286046997.6,N
1586399635.5,286046997.7,N
1586399655.4,286046999.6,N
1586399675.2,286046998.4,N
1586399695.0,286047001.2,N
1586399696.0,286047001.2,N
1586399715.8,286047000.7,N
1586399735.6,286046997.8,N
1586399755.5,286046996.0,N
1586399775.3,286046997.5,N
1586399795.1,286046998.8,N
1586399815.9,286046998.2,N
1586399835.7,286047000.2,N
1586399855.6,286047000.8,N
1586399875.4,286046996.6,N
1586399895.2,286046996.9,N
1586399915.1,286046999.4,N
1586399916.0,286046999.4,N
1586399935.8,286046999.5,N
1586399955.7,286046995.3,N
1586399975.5,286046996.3,N
1586399995.3,286046997.6,N
1586400015.2,286046993.4,Y
1586400035.0,286046995.8,P
1586400035.9,286046995.8,P
1586400055.8,286046996.2,P
1586400075.6,286046993.9,Y
1586400095.4,286047001.9,P
1586400115.3,286047001.6,N
1586400135.1,286047001.6,N
1586400155.9,286047002.7,N
1586400175.7,286047001.6,N
1586400195.5,286047005.0,N
1586400215.4,286047005.3,N
1586400235.2,286047002.1,N
1586400255.0,286047001.6,N
1586400255.9,286047001.6,N
1586400275.8,286047002.0,N
1586400295.6,286047003.8,N
1586400315.5,286047002.9,N
1586400335.3,286047005.5,N
1586400355.1,286047005.0,N
1586400375.9,286047006.2,N
1586400395.7,286047007.4,Y
1586400415.6,286047001.7,P
1586400435.4,286046998.1,P
1586400455.2,286046999.7,N
1586400475.1,286047002.3,N
1586400476.0,286047002.3,N
1586400495.8,286047002.3,N
1586400515.6,286047004.4,N
1586400535.5,286047001.8,N
1586400555.3,286047004.0,N
1586400575.2,286047002.5,N
1586400595.9,286047002.6,N
1586400615.7,286047002.3,N
1586400635.6,286047000.4,N
1586400655.4,286046999.3,N
1586400675.3,286046997.1,N
1586400695.1,286047001.0,N
1586400696.0,286047001.0,N
1586400715.8,286047003.7,N
1586400735.7,286047004.2,N
1586400755.5,286047002.4,N
1586400775.3,286047000.4,N
1586400795.2,286047000.3,N
1586400815.0,286046998.6,N
1586400815.9,286046998.6,N
1586400835.8,286046999.3,N
1586400855.6,286046998.6,N
1586400875.4,286046999.5,N
1586400895.3,286046998.7,N
1586400915.1,286047002.4,N
1586400935.9,286047003.9,N
1586400955.7,286047002.3,N
1586400975.5,286047001.0,N
1586400995.4,286046998.2,N
1586401015.2,286046998.7,N
1586401035.0,286046998.3,N
1586401036.0,286046998.3,N
1586401055.8,286047000.2,N
1586401075.6,286046998.7,N
1586401095.5,286047000.5,N
1586401115.3,286047004.4,N
1586401135.1,286047001.5,N
1586401155.9,286047001.7,N
1586401175.7,286047003.9,N
1586401195.6,286047001.9,N
